Simultaneous Nadir Overpasses (SNOs) Predictions

Prediction of SNOs between GOES-14 and NOAA-20 Satellite Orbit:

Table of predicted SNOs for the next 14.0 days since TLE Epoch: 10/1/2022
Index Date Time (GOES-14) GOES-14 Lat,Lon NOAA-20 Lat,Lon Distance(km) Time Diff (sec)
1 10/01/2022 08:05:05 0.31,-104.36 -0.58,-100.48 442.53 80
2 10/02/2022 20:27:02 -0.28,-104.37 -0.58,-105.79 161.76 80
3 10/03/2022 20:10:58 -0.29,-104.38 0.43,-101.27 355.19 80
4 10/05/2022 08:32:46 0.26,-104.37 0.72,-106.54 246.67 80
5 10/06/2022 08:11:21 0.27,-104.35 -0.24,-102.00 267.84 80
6 10/07/2022 20:33:18 -0.24,-104.32 -0.91,-107.31 340.81 80
7 10/08/2022 20:17:14 -0.25,-104.33 0.11,-102.79 176.83 80
8 10/10/2022 08:39:02 0.22,-104.38 1.03,-108.06 419.13 80
9 10/11/2022 08:17:36 0.24,-104.37 0.07,-103.52 95.91 80
10 10/13/2022 20:20:48 -0.23,-104.31 -0.25,-104.30 2.86 80
